Location: STAR School
(35.3054°N, 111.2976°W)
Time: 12:33:50
(UTC-07:00)

deb Explorer IX - Pass Details

Date: 26 May 2019
Orbit: 537 x 1115 km, 38.8° (Epoch: 16 June)

Event Time Altitude Azimuth Distance (km) Brightness Sun altitude
Exits shadow 02:52:33 46° 319° (NW) 718 ? -23.3°
Maximum altitude 02:53:13 53° 355° (N) 662 ? -23.2°
Drops below altitude 10° 02:57:15 10° 73° (ENE) 1,831 ? -22.7°
Sets 02:59:38 0° 78° (ENE) 2,776 ? -22.4°
